DW7787 Weather Reports


Display with metric or nautical units.
time (UTC)temp
F
wind
direction
speed
MPH
gust
MPH
rain 1hr
in
rain 24hr
in
rain mn
in
humidity
%
barometer
mb
20260505213613 80 160 2.0 8.0 0.00 0.00 0.00 36 1014.7
20260505213112 80 346 3.0 8.0 0.00 0.00 0.00 36 1014.6
20260505212611 80 194 3.0 8.0 0.00 0.00 0.00 36 1014.6
20260505212112 80 200 3.0 8.0 0.00 0.00 0.00 35 1014.5
20260505211611 80 196 2.0 6.0 0.00 0.00 0.00 35 1014.6
20260505211111 80 86 2.0 5.0 0.00 0.00 0.00 36 1014.7
20260505210913 80 176 2.0 10.0 0.00 0.00 0.00 36 1014.7
20260505210111 80 214 2.0 10.0 0.00 0.00 0.00 36 1014.6
20260505205609 80 209 3.0 9.0 0.00 0.00 0.00 36 1014.7
20260505205107 80 121 2.0 9.0 0.00 0.00 0.00 37 1014.7
20260505204606 79 196 2.0 5.0 0.00 0.00 0.00 36 1014.7
20260505204107 79 186 2.0 5.0 0.00 0.00 0.00 36 1014.9
20260505203609 80 221 2.0 5.0 0.00 0.00 0.00 35 1014.9
20260505203106 79 221 2.0 8.0 0.00 0.00 0.00 37 1014.9
20260505202605 79 161 2.0 8.0 0.00 0.00 0.00 37 1014.9
20260505202105 80 115 3.0 8.0 0.00 0.00 0.00 35 1015.1
20260505201605 81 107 2.0 8.0 0.00 0.00 0.00 35 1015.1
20260505201103 82 207 2.0 7.0 0.00 0.00 0.00 36 1015.1
20260505200605 81 241 3.0 9.0 0.00 0.00 0.00 33 1014.9
20260505200103 82 199 3.0 9.0 0.00 0.00 0.00 35 1015.1
20260505195606 81 193 3.0 7.0 0.00 0.00 0.00 35 1015.2
20260505195103 81 196 3.0 6.0 0.00 0.00 0.00 34 1015.2
20260505194741 81 75 2.0 6.0 0.00 0.00 0.00 33 1015.4
20260505194710 81 243 2.0 6.0 0.00 0.00 0.00 34 1015.2
20260505193603 81 219 2.0 6.0 0.00 0.00 0.00 35 1015.3
20260505193433 80 159 3.0 6.0 0.00 0.00 0.00 35 1015.6
20260505192603 81 218 2.0 6.0 0.00 0.00 0.00 36 1015.8
20260505192104 81 222 2.0 5.0 0.00 0.00 0.00 35 1015.8
20260505191610 80 152 2.0 5.0 0.00 0.00 0.00 35 1015.9
20260505191107 80 155 2.0 5.0 0.00 0.00 0.00 37 1016.0
20260505190607 80 148 3.0 7.0 0.00 0.00 0.00 36 1016.1
20260505185556 80 235 3.0 8.0 0.00 0.00 0.00 35 1016.2
20260505185049 80 175 3.0 8.0 0.00 0.00 0.00 35 1016.2
20260505184852 80 331 3.0 6.0 0.00 0.00 0.00 37 1016.2
20260505184340 79 57 3.0 6.0 0.00 0.00 0.00 38 1016.3
20260505183533 80 75 2.0 9.0 0.00 0.00 0.00 38 1016.6
20260505183033 80 55 2.0 9.0 0.00 0.00 0.00 38 1016.7
20260505182535 79 112 3.0 6.0 0.00 0.00 0.00 39 1016.8
20260505182034 78 190 3.0 7.0 0.00 0.00 0.00 39 1016.9
20260505181534 78 209 3.0 7.0 0.00 0.00 0.00 37 1017.1
20260505181036 79 231 3.0 10.0 0.00 0.00 0.00 38 1017.1
20260505180531 79 209 3.0 10.0 0.00 0.00 0.00 36 1017.1
20260505180334 79 203 3.0 7.0 0.00 0.00 0.00 36 1017.1
20260505175530 78 222 3.0 7.0 0.00 0.00 0.00 35 1017.1
20260505175030 79 208 2.0 8.0 0.00 0.00 0.00 36 1017.1
20260505174529 78 219 2.0 8.0 0.00 0.00 0.00 35 1017.0
20260505174030 78 295 3.0 8.0 0.00 0.00 0.00 35 1017.0
20260505173529 78 156 3.0 8.0 0.00 0.00 0.00 36 1016.9
20260505173029 79 192 2.0 7.0 0.00 0.00 0.00 35 1016.9
20260505172532 79 159 2.0 7.0 0.00 0.00 0.00 37 1017.0
20260505172030 78 141 3.0 7.0 0.00 0.00 0.00 37 1017.0
20260505171533 78 207 2.0 7.0 0.00 0.00 0.00 35 1017.2
20260505171026 78 105 2.0 7.0 0.00 0.00 0.00 37 1017.1
20260505170526 78 193 2.0 6.0 0.00 0.00 0.00 40 1017.1
20260505170029 77 92 2.0 5.0 0.00 0.00 0.00 40 1017.1
20260505165526 76 38 2.0 7.0 0.00 0.00 0.00 42 1017.2
20260505165323 76 107 3.0 7.0 0.00 0.00 0.00 40 1017.3
20260505164527 76 253 2.0 7.0 0.00 0.00 0.00 41 1017.3
20260505164026 75 144 2.0 6.0 0.00 0.00 0.00 46 1017.4
20260505163526 75 129 2.0 6.0 0.00 0.00 0.00 43 1017.5
20260505163027 76 304 2.0 8.0 0.00 0.00 0.00 45 1017.5
20260505162753 75 186 2.0 8.0 0.00 0.00 0.00 47 1017.5
20260505162528 75 186 2.0 8.0 0.00 0.00 0.00 47 1017.5
20260505162025 75 281 2.0 4.0 0.00 0.00 0.00 47 1017.7
20260505161527 74 230 2.0 7.0 0.00 0.00 0.00 46 1017.7
20260505161026 74 210 2.0 7.0 0.00 0.00 0.00 47 1017.7
20260505160829 74 230 2.0 7.0 0.00 0.00 0.00 48 1017.7
20260505153021 71 111 2.0 5.0 0.00 0.00 0.00 55 1017.7
20260505152820 71 212 2.0 5.0 0.00 0.00 0.00 56 1017.7
20260505152020 71 200 2.0 5.0 0.00 0.00 0.00 57 1017.7
20260505151519 70 207 2.0 4.0 0.00 0.00 0.00 57 1017.7
20260505151018 70 63 2.0 4.0 0.00 0.00 0.00 59 1017.9
20260505150518 69 219 2.0 4.0 0.00 0.00 0.00 60 1018.0
20260505140325 64 199 1.0 4.0 0.00 0.00 0.00 70 1017.5
20260505125005 60 327 2.0 5.0 0.00 0.00 0.00 77 1017.5
20260505124505 60 219 1.0 5.0 0.00 0.00 0.00 78 1017.4
20260505124000 59 204 1.0 4.0 0.00 0.00 0.00 78 1017.5
20260505123504 59 117 2.0 5.0 0.00 0.00 0.00 78 1017.5
20260505123312 59 175 2.0 5.0 0.00 0.00 0.00 78 1017.6
20260505122459 58 113 1.0 4.0 0.00 0.00 0.00 79 1017.6
20260505122000 58 196 1.0 5.0 0.00 0.00 0.00 79 1017.5
20260505121809 58 213 1.0 5.0 0.00 0.00 0.00 79 1017.5
20260505121308 57 207 1.0 3.0 0.00 0.00 0.00 80 1017.5
20260505120454 57 256 1.0 5.0 0.00 0.00 0.00 80 1017.5
20260505120259 57 227 1.0 5.0 0.00 0.00 0.00 80 1017.4
20260505115451 56 208 0.0 3.0 0.00 0.00 0.00 80 1017.4
20260505115259 56 211 0.0 2.0 0.00 0.00 0.00 80 1017.3
20260505114758 56 229 0.0 2.0 0.00 0.00 0.00 80 1017.3
20260505113944 56 5 0.0 1.0 0.00 0.00 0.00 80 1017.2
20260505113440 56 192 0.0 3.0 0.00 0.00 0.00 79 1017.2
20260505112938 56 192 0.0 3.0 0.00 0.00 0.00 79 1017.2
20260505112438 56 177 0.0 2.0 0.00 0.00 0.00 78 1017.2
20260505111935 56 57 0.0 2.0 0.00 0.00 0.00 78 1017.1
20260505111434 56 200 0.0 1.0 0.00 0.00 0.00 78 1017.2
20260505111239 56 200 0.0 0.0 0.00 0.00 0.00 77 1017.1
20260505110604 56 200 0.0 1.0 0.00 0.00 0.00 76 1017.1
20260505110539 56 200 0.0 1.0 0.00 0.00 0.00 77 1017.1
20260505102221 58 274 0.0 1.0 0.00 0.00 0.00 74 1017.1
20260505101430 58 298 0.0 2.0 0.00 0.00 0.00 74 1017.0
20260505101234 58 308 1.0 4.0 0.00 0.00 0.00 74 1016.9
20260505100424 58 254 1.0 4.0 0.00 0.00 0.00 73 1016.9
20260505095918 58 290 0.0 2.0 0.00 0.00 0.00 73 1016.9
20260505095739 58 290 0.0 2.0 0.00 0.00 0.00 73 1016.7
20260505094908 58 267 1.0 6.0 0.00 0.00 0.00 72 1016.7
20260505094357 58 24 1.0 6.0 0.00 0.00 0.00 73 1016.6
20260505093851 58 51 1.0 4.0 0.00 0.00 0.00 72 1016.6
20260505093345 59 182 1.0 4.0 0.00 0.00 0.00 72 1016.6
20260505092839 59 271 1.0 4.0 0.00 0.00 0.00 71 1016.6
20260505092338 59 221 1.0 3.0 0.00 0.00 0.00 71 1016.6
20260505091839 59 212 1.0 4.0 0.00 0.00 0.00 71 1016.5
20260505091338 59 214 1.0 4.0 0.00 0.00 0.00 70 1016.4
20260505091149 59 206 1.0 4.0 0.00 0.00 0.00 70 1016.4
20260505090341 59 188 1.0 6.0 0.00 0.00 0.00 70 1016.3
20260505085838 60 206 1.0 6.0 0.00 0.00 0.00 70 1016.1
20260505085338 60 199 1.0 4.0 0.00 0.00 0.00 69 1016.0
20260505084836 60 198 1.0 4.0 0.00 0.00 0.00 69 1016.1
20260505084336 60 219 1.0 4.0 0.00 0.00 0.00 69 1016.0
20260505083838 60 171 2.0 4.0 0.00 0.00 0.00 69 1016.0
20260505083334 60 210 1.0 4.0 0.00 0.00 0.00 68 1016.0
20260505082834 60 200 1.0 4.0 0.00 0.00 0.00 68 1015.9
20260505082335 60 198 1.0 3.0 0.00 0.00 0.00 68 1015.9
20260505081832 60 194 2.0 3.0 0.00 0.00 0.00 67 1015.9
20260505081333 60 181 2.0 5.0 0.00 0.00 0.00 67 1016.0
20260505080831 60 205 2.0 8.0 0.00 0.00 0.00 67 1015.9
20260505080652 60 214 2.0 8.0 0.00 0.00 0.00 67 1015.8
20260505075831 60 212 2.0 5.0 0.00 0.00 0.00 66 1015.9
20260505075328 60 235 2.0 5.0 0.00 0.00 0.00 66 1015.8
20260505074829 60 186 1.0 5.0 0.00 0.00 0.00 66 1015.8
20260505074330 60 196 1.0 3.0 0.00 0.00 0.00 66 1015.8
20260505073829 60 201 1.0 4.0 0.00 0.00 0.00 66 1015.7
20260505073326 60 146 2.0 5.0 0.00 0.00 0.00 65 1015.7
20260505072828 60 188 2.0 5.0 0.00 0.00 0.00 65 1015.7
20260505072326 60 194 1.0 8.0 0.00 0.00 0.00 65 1015.7
20260505071827 61 214 1.0 8.0 0.00 0.00 0.00 64 1015.8
20260505071324 61 241 1.0 3.0 0.00 0.00 0.00 64 1015.8
20260505070823 61 202 1.0 3.0 0.00 0.00 0.00 64 1015.7
20260505070323 61 207 0.0 2.0 0.00 0.00 0.00 63 1015.7
20260505065821 61 202 0.0 2.0 0.00 0.00 0.00 62 1015.7
20260505065322 61 202 1.0 3.0 0.00 0.00 0.00 62 1015.8
20260505064823 62 201 1.0 3.0 0.00 0.00 0.00 62 1015.7
20260505064320 62 211 1.0 3.0 0.00 0.00 0.00 61 1015.7
20260505063821 62 210 1.0 3.0 0.00 0.00 0.00 61 1015.7
20260505063319 62 199 1.0 3.0 0.00 0.00 0.00 60 1015.7
20260505062816 62 231 1.0 6.0 0.00 0.00 0.00 60 1015.7
20260505062318 62 198 1.0 6.0 0.00 0.00 0.00 60 1015.7
20260505062120 62 202 1.0 3.0 0.00 0.00 0.00 59 1015.8
20260505061602 62 163 1.0 3.0 0.00 0.00 0.00 59 1015.8
20260505060805 62 186 1.0 3.0 0.00 0.00 0.00 58 1015.8
20260505060307 63 196 1.0 3.0 0.00 0.00 0.00 57 1015.8
20260505055806 63 184 1.0 3.0 0.00 0.00 0.00 56 1015.8
20260505055304 63 206 1.0 5.0 0.00 0.00 0.00 55 1015.8
20260505054803 63 201 1.0 5.0 0.00 0.00 0.00 54 1015.9
20260505054302 63 189 1.0 3.0 0.00 0.00 0.00 54 1015.8
20260505053804 63 174 1.0 3.0 0.00 0.00 0.00 53 1015.8
20260505053302 63 214 1.0 3.0 0.00 0.00 0.00 52 1016.0
20260505052803 63 201 1.0 2.0 0.00 0.00 0.00 51 1016.0
20260505052304 64 175 1.0 4.0 0.00 0.00 0.00 51 1015.9
20260505051801 64 202 1.0 4.0 0.00 0.00 0.00 50 1016.0
20260505051303 64 191 1.0 3.0 0.00 0.00 0.00 50 1015.9
20260505050801 64 116 0.0 2.0 0.00 0.00 0.00 50 1015.8
20260505050301 64 52 0.0 4.0 0.00 0.00 0.00 50 1015.8
20260505041301 65 104 0.0 2.0 0.00 0.00 0.00 47 1015.9
20260505040915 65 221 0.0 2.0 0.00 0.00 0.00 47 1015.8
20260505040849 65 220 0.0 1.0 0.00 0.00 0.00 47 1015.8
20260505035801 65 221 0.0 2.0 0.00 0.00 0.00 46 1015.8
20260505035304 66 117 0.0 2.0 0.00 0.00 0.00 46 1015.9
20260505034802 66 150 0.0 2.0 0.00 0.00 0.00 46 1015.9
20260505034550 66 160 0.0 2.0 0.00 0.00 0.00 46 1015.9
20260505033802 66 67 1.0 2.0 0.00 0.00 0.00 45 1016.0
20260505033623 66 200 0.0 3.0 0.00 0.00 0.00 45 1016.0
20260505032808 66 213 0.0 3.0 0.00 0.00 0.00 44 1016.0
20260505032308 66 74 0.0 2.0 0.00 0.00 0.00 44 1015.9
20260505032058 66 0 0.0 2.0 0.00 0.00 0.00 44 1016.0
20260505031248 66 317 0.0 2.0 0.00 0.00 0.00 43 1016.0
20260505031038 66 317 0.0 2.0 0.00 0.00 0.00 43 1016.0
20260505030237 66 150 0.0 2.0 0.00 0.00 0.00 42 1016.0
20260505025732 66 209 0.0 2.0 0.00 0.00 0.00 42 1015.9
20260505025231 67 209 0.0 2.0 0.00 0.00 0.00 42 1015.9
20260505024734 67 178 0.0 4.0 0.00 0.00 0.00 42 1016.0
20260505024233 67 174 0.0 4.0 0.00 0.00 0.00 42 1016.0
20260505023731 67 240 0.0 1.0 0.00 0.00 0.00 42 1015.9
20260505023517 67 240 0.0 1.0 0.00 0.00 0.00 42 1015.9
20260505023022 67 215 0.0 1.0 0.00 0.00 0.00 41 1015.9
20260505022230 67 215 0.0 1.0 0.00 0.00 0.00 41 1015.9
20260505021726 67 215 0.0 1.0 0.00 0.00 0.00 41 1015.9
20260505021224 67 215 0.0 1.0 0.00 0.00 0.00 42 1015.8
20260505020724 67 215 0.0 1.0 0.00 0.00 0.00 42 1015.8
20260505020522 67 215 0.0 1.0 0.00 0.00 0.00 42 1015.8
20260505015722 67 215 0.0 1.0 0.00 0.00 0.00 42 1015.9
20260505015223 67 215 0.0 1.0 0.00 0.00 0.00 41 1015.8
20260505015036 68 214 0.0 1.0 0.00 0.00 0.00 41 1015.7
20260505014222 68 214 0.0 1.0 0.00 0.00 0.00 41 1015.7
20260505013720 68 214 0.0 0.0 0.00 0.00 0.00 41 1015.6
20260505013516 68 214 0.0 1.0 0.00 0.00 0.00 41 1015.6
20260505013014 68 214 0.0 1.0 0.00 0.00 0.00 40 1015.4
20260505012518 68 214 0.0 1.0 0.00 0.00 0.00 40 1015.5
20260505011716 68 214 0.0 1.0 0.00 0.00 0.00 40 1015.3
20260505011213 69 214 0.0 1.0 0.00 0.00 0.00 40 1015.3
20260505010713 69 214 0.0 0.0 0.00 0.00 0.00 40 1015.2
20260505010212 68 214 0.0 0.0 0.00 0.00 0.00 40 1015.2
20260505005710 68 214 0.0 0.0 0.00 0.00 0.00 40 1015.2
20260505005209 69 214 0.0 0.0 0.00 0.00 0.00 39 1015.1
20260505004708 69 214 0.0 0.0 0.00 0.00 0.00 39 1014.9
20260505004208 69 214 0.0 0.0 0.00 0.00 0.00 39 1015.0
20260505003707 70 214 0.0 0.0 0.00 0.00 0.00 38 1014.9
20260505003208 70 214 0.0 0.0 0.00 0.00 0.00 37 1014.9
20260505002709 70 214 0.0 1.0 0.00 0.00 0.00 37 1014.9
20260505002204 71 214 0.0 1.0 0.00 0.00 0.00 36 1014.8
20260505001704 71 214 0.0 0.0 0.00 0.00 0.00 36 1014.9
20260505001203 71 214 0.0 0.0 0.00 0.00 0.00 35 1014.9
20260505000704 72 214 0.0 0.0 0.00 0.00 0.00 35 1014.8
20260505000204 72 214 0.0 0.0 0.00 0.00 0.00 34 1014.7
20260504235704 73 214 0.0 0.0 0.00 0.00 0.00 34 1014.7
20260504235549 73 214 0.0 2.0 0.00 0.00 0.00 33 1014.6
20260504235543 73 214 0.0 1.0 0.00 0.00 0.00 34 1014.7
20260504234204 74 214 0.0 2.0 0.00 0.00 0.00 33 1014.5
20260504233807 74 215 0.0 2.0 0.00 0.00 0.00 32 1014.4
20260504233747 74 214 0.0 1.0 0.00 0.00 0.00 33 1014.4
20260504232704 74 219 0.0 2.0 0.00 0.00 0.00 32 1014.4
20260504232505 75 225 1.0 4.0 0.00 0.00 0.00 31 1014.4
20260504231704 75 211 1.0 4.0 0.00 0.00 0.00 31 1014.4
20260504231509 75 170 1.0 3.0 0.00 0.00 0.00 31 1014.3
20260504230704 76 204 1.0 3.0 0.00 0.00 0.00 29 1014.4
20260504230504 76 213 1.0 3.0 0.00 0.00 0.00 31 1014.3
20260504225704 76 194 1.0 4.0 0.00 0.00 0.00 30 1014.3
20260504225202 76 197 1.0 4.0 0.00 0.00 0.00 29 1014.3
20260504224805 77 228 1.0 4.0 0.00 0.00 0.00 29 1014.3
20260504224745 76 202 1.0 3.0 0.00 0.00 0.00 28 1014.3
20260504223702 77 217 1.0 4.0 0.00 0.00 0.00 29 1014.2
20260504223510 77 242 2.0 3.0 0.00 0.00 0.00 27 1014.3
20260504222702 77 211 1.0 4.0 0.00 0.00 0.00 28 1014.3
20260504222201 77 188 2.0 5.0 0.00 0.00 0.00 28 1014.2
20260504222029 78 169 2.0 5.0 0.00 0.00 0.00 26 1014.4
20260504221200 78 161 2.0 5.0 0.00 0.00 0.00 25 1014.3
20260504221005 78 70 2.0 6.0 0.00 0.00 0.00 24 1014.4
20260504220202 79 259 2.0 6.0 0.00 0.00 0.00 24 1014.3
20260504215705 79 213 1.0 6.0 0.00 0.00 0.00 22 1014.3
20260504215209 79 247 1.0 5.0 0.00 0.00 0.00 26 1014.3
20260504214659 79 201 2.0 5.0 0.00 0.00 0.00 24 1014.3
20260504214153 79 231 2.0 4.0 0.00 0.00 0.00 25 1014.3